TimeCST,TemperatureF,Dew PointF,Humidity,Sea Level PressureIn,VisibilityMPH,Wind Direction,Wind SpeedMPH,Gust SpeedMPH,PrecipitationIn,Events,Conditions,WindDirDegrees,DateUTC
12:53 AM,25.0,23.0,92,30.15,5.0,Calm,Calm,-,N/A,,Clear,0,2013-12-01 06:53:00
1:53 AM,24.1,21.0,88,30.14,4.0,North,4.6,-,N/A,,Clear,10,2013-12-01 07:53:00
2:53 AM,24.1,21.9,91,30.15,5.0,Calm,Calm,-,N/A,,Clear,0,2013-12-01 08:53:00
3:53 AM,23.0,19.0,85,30.14,5.0,North,5.8,-,N/A,,Clear,360,2013-12-01 09:53:00
4:53 AM,25.0,23.0,92,30.14,6.0,North,4.6,-,N/A,,Clear,10,2013-12-01 10:53:00
5:53 AM,23.0,21.0,92,30.15,6.0,North,3.5,-,N/A,,Clear,10,2013-12-01 11:53:00
6:53 AM,23.0,21.0,92,30.17,6.0,NNE,5.8,-,N/A,,Clear,30,2013-12-01 12:53:00
7:53 AM,24.1,21.9,91,30.17,5.0,Calm,Calm,-,N/A,,Clear,0,2013-12-01 13:53:00
8:53 AM,33.1,28.0,82,30.17,7.0,North,5.8,-,N/A,,Clear,10,2013-12-01 14:53:00
9:53 AM,37.9,30.0,73,30.17,10.0,Calm,Calm,-,N/A,,Clear,0,2013-12-01 15:53:00
10:53 AM,43.0,30.0,60,30.15,10.0,Calm,Calm,-,N/A,,Clear,0,2013-12-01 16:53:00
11:53 AM,46.0,30.0,54,30.11,10.0,Calm,Calm,-,N/A,,Clear,0,2013-12-01 17:53:00
12:53 PM,48.9,30.9,50,30.07,10.0,SSE,4.6,-,N/A,,Clear,150,2013-12-01 18:53:00
1:53 PM,52.0,32.0,47,30.05,10.0,Calm,Calm,-,N/A,,Clear,0,2013-12-01 19:53:00
2:53 PM,52.0,30.9,45,30.02,10.0,Calm,Calm,-,N/A,,Clear,0,2013-12-01 20:53:00
3:53 PM,52.0,30.9,45,30.00,10.0,North,3.5,-,N/A,,Clear,350,2013-12-01 21:53:00
4:53 PM,46.0,32.0,58,29.99,10.0,Calm,Calm,-,N/A,,Clear,0,2013-12-01 22:53:00
5:53 PM,39.9,30.9,70,30.00,10.0,North,5.8,-,N/A,,Clear,350,2013-12-01 23:53:00
6:53 PM,37.0,30.0,76,29.99,7.0,NNW,4.6,-,N/A,,Partly Cloudy,340,2013-12-02 00:53:00
7:53 PM,39.0,30.9,73,29.97,10.0,Calm,Calm,-,N/A,,Clear,0,2013-12-02 01:53:00
8:53 PM,36.0,30.0,79,29.96,8.0,NNW,3.5,-,N/A,,Scattered Clouds,340,2013-12-02 02:53:00
9:53 PM,33.1,27.0,78,29.94,6.0,Calm,Calm,-,N/A,,Haze,0,2013-12-02 03:53:00
10:53 PM,33.1,28.0,82,29.91,10.0,ESE,3.5,-,N/A,,Clear,120,2013-12-02 04:53:00
11:53 PM,37.0,30.0,76,29.89,10.0,ESE,3.5,-,N/A,,Clear,120,2013-12-02 05:53:00